Weather History for Versailles, OH

Change the Weather History Date:

Wednesday, February 26, 2014

  Actual Average (KDAY) Record (KDAY)
Temperature  
Mean Temperature 14 °F 34 °F  
Max Temperature 21 °F 42 °F 72 °F (2000)
Min Temperature 8 °F 26 °F -8 °F (1963)
Degree Days  
Heating Degree Days 50 31  
Month to date heating degree days 891  
Since 1 July heating degree days 4214  
Cooling Degree Days 0 0  
Month to date cooling degree days 0  
Year to date cooling degree days 0  
Moisture  
Dew Point 5 °F    
Average Humidity 64    
Maximum Humidity 79    
Minimum Humidity 46    
Precipitation  
Precipitation 0.00 in 0.08 in 1.28 in (1957)
Month to date precipitation 2.07  
Year to date precipitation 4.78  
Snow  
Snow 0.00 in 0.20 in 3.50 in (1986)
Month to date snowfall 5.5  
Since 1 July snowfall 18.9  
Snow Depth -    
Sea Level Pressure  
Sea Level Pressure 30.01 in    
Wind  
Wind Speed 14 mph (West)    
Max Wind Speed 22 mph    
Max Gust Speed 28 mph    
Visibility 10 miles    
Events      
T = Trace of Precipitation, MM = Missing Value Source: NWS Daily Summary

Daily Weather History Graph

Daily Weather History Graph

Search for Another Location

Airport:

Trip Planner

Search our weather history database for the weather conditions in past years. The results will help you decide how hot, cold, wet, or windy it might be!

Date:

Astronomy

Feb. 26, 2014 Rise Set
Actual Time 7:16 AM EST 6:26 PM EST
Civil Twilight 6:48 AM EST 6:53 PM EST
Nautical Twilight 6:17 AM EST 7:25 PM EST
Astronomical Twilight 5:45 AM EST 7:56 PM EST
Moon 5:01 AM EST (2/26) 3:40 PM EST (2/26)
Length of Visible Light 12h 05m
Length of Day
11h 10m
Waning Crescent, 10% of the Moon is Illuminated
Feb 26
Waning Crescent
Mar 1
New
Mar 8
First Quarter
Mar 16
Full
Mar 23
Last Quarter

Hourly Weather History & Observations

Time (EST) Temp. Windchill Dew Point Humidity Pressure Visibility Wind Dir Wind Speed Gust Speed Precip Events Conditions
12:15 AM 19.4 °F 4.5 °F 12.2 °F 74% 30.05 in 10.0 mi WNW 17.3 mph 21.9 mph N/A   Mostly Cloudy
12:35 AM 19.4 °F 5.5 °F 12.2 °F 74% 30.05 in 10.0 mi WNW 15.0 mph 21.9 mph N/A   Scattered Clouds
12:55 AM 19.4 °F 3.6 °F 12.2 °F 74% 30.06 in 10.0 mi WNW 19.6 mph 27.6 mph N/A   Scattered Clouds
1:15 AM 17.6 °F 1.7 °F 8.6 °F 68% 30.06 in 10.0 mi WNW 18.4 mph 23.0 mph N/A   Scattered Clouds
1:35 AM 15.8 °F -1.1 °F 8.6 °F 73% 30.07 in 10.0 mi NW 19.6 mph 24.2 mph N/A   Clear
1:55 AM 15.8 °F 0.9 °F 8.6 °F 73% 30.06 in 10.0 mi WNW 15.0 mph 20.7 mph N/A   Scattered Clouds
2:15 AM 14.0 °F -2.5 °F 8.6 °F 79% 30.07 in 10.0 mi NW 17.3 mph 21.9 mph N/A   Scattered Clouds
2:35 AM 14.0 °F -3.0 °F 5.0 °F 67% 30.07 in 10.0 mi NW 18.4 mph 25.3 mph N/A   Clear
2:55 AM 14.0 °F -4.3 °F 5.0 °F 67% 30.07 in 10.0 mi NW 21.9 mph 26.5 mph N/A   Clear
3:15 AM 12.2 °F -3.7 °F 5.0 °F 73% 30.07 in 10.0 mi WNW 15.0 mph 24.2 mph N/A   Clear
3:35 AM 12.2 °F -3.7 °F 6.8 °F 79% 30.08 in 10.0 mi NW 15.0 mph 24.2 mph N/A   Clear
3:55 AM 12.2 °F -3.7 °F 5.0 °F 73% 30.08 in 10.0 mi WNW 15.0 mph 23.0 mph N/A   Clear
4:15 AM 12.2 °F -4.3 °F 5.0 °F 73% 30.09 in 10.0 mi WNW 16.1 mph 21.9 mph N/A   Clear
4:35 AM 12.2 °F -2.5 °F 5.0 °F 73% 30.09 in 10.0 mi NW 12.7 mph 18.4 mph N/A   Clear
4:55 AM 10.4 °F -6.6 °F 5.0 °F 79% 30.10 in 10.0 mi NW 16.1 mph 23.0 mph N/A   Scattered Clouds
5:15 AM 10.4 °F -5.4 °F 5.0 °F 79% 30.11 in 10.0 mi WNW 13.8 mph 23.0 mph N/A   Scattered Clouds
5:35 AM 10.4 °F -5.4 °F 3.2 °F 73% 30.11 in 10.0 mi WNW 13.8 mph 18.4 mph N/A   Clear
5:55 AM 10.4 °F -4.8 °F 3.2 °F 73% 30.11 in 10.0 mi WNW 12.7 mph - N/A   Clear
6:15 AM 8.6 °F -8.3 °F 3.2 °F 79% 30.12 in 10.0 mi NW 15.0 mph 18.4 mph N/A   Clear
6:35 AM 8.6 °F -8.3 °F 3.2 °F 79% 30.12 in 10.0 mi WNW 15.0 mph - N/A   Clear
6:55 AM 8.6 °F -6.3 °F 3.2 °F 79% 30.12 in 10.0 mi NW 11.5 mph 18.4 mph N/A   Clear
7:15 AM 8.6 °F -6.3 °F 3.2 °F 79% 30.12 in 10.0 mi WNW 11.5 mph 16.1 mph N/A   Clear
7:35 AM 8.6 °F -6.3 °F 3.2 °F 79% 30.13 in 10.0 mi WNW 11.5 mph 16.1 mph N/A   Clear
7:55 AM 8.6 °F -6.3 °F 3.2 °F 79% 30.14 in 10.0 mi WNW 11.5 mph 17.3 mph N/A   Clear
8:15 AM 8.6 °F -7.7 °F 3.2 °F 79% 30.15 in 10.0 mi WNW 13.8 mph - N/A   Clear
8:35 AM 10.4 °F -6.0 °F 3.2 °F 73% 30.16 in 10.0 mi NW 15.0 mph 18.4 mph N/A   Clear
8:55 AM 10.4 °F -5.4 °F 3.2 °F 73% 30.16 in 10.0 mi NW 13.8 mph - N/A   Clear
9:15 AM 10.4 °F -4.1 °F 3.2 °F 73% 30.17 in 10.0 mi WNW 11.5 mph - N/A   Clear
9:35 AM 12.2 °F -1.8 °F 3.2 °F 67% 30.16 in 10.0 mi West 11.5 mph - N/A   Scattered Clouds
9:55 AM 12.2 °F -1.0 °F 3.2 °F 67% 30.16 in 10.0 mi WNW 10.4 mph 16.1 mph N/A   Scattered Clouds
10:15 AM 12.2 °F -0.2 °F 5.0 °F 73% 30.14 in 10.0 mi WNW 9.2 mph 16.1 mph N/A   Clear
10:35 AM 14.0 °F 3.9 °F 3.2 °F 62% 30.13 in 10.0 mi NNW 6.9 mph - N/A   Scattered Clouds
10:55 AM 12.2 °F 0.7 °F 3.2 °F 67% 30.13 in 10.0 mi WNW 8.1 mph - N/A   Scattered Clouds
11:15 AM 14.0 °F 1.2 °F 3.2 °F 62% 30.12 in 10.0 mi West 10.4 mph - N/A   Scattered Clouds
11:35 AM 14.0 °F 2.0 °F 3.2 °F 62% 30.12 in 10.0 mi West 9.2 mph - N/A   Mostly Cloudy
11:55 AM 14.0 °F 2.9 °F 3.2 °F 62% 30.11 in 10.0 mi WSW 8.1 mph - N/A   Mostly Cloudy
12:15 PM 14.0 °F 2.0 °F 3.2 °F 62% 30.10 in 10.0 mi West 9.2 mph - N/A   Mostly Cloudy
12:35 PM 14.0 °F 2.9 °F 3.2 °F 62% 30.09 in 10.0 mi WNW 8.1 mph - N/A   Mostly Cloudy
12:55 PM 17.6 °F 5.7 °F 3.2 °F 53% 30.08 in 10.0 mi West 10.4 mph 16.1 mph N/A   Mostly Cloudy
1:15 PM 19.4 °F 8.6 °F 3.2 °F 49% 30.06 in 10.0 mi WSW 9.2 mph 16.1 mph N/A   Mostly Cloudy
1:35 PM 19.4 °F 6.6 °F 3.2 °F 49% 30.05 in 10.0 mi WSW 12.7 mph - N/A   Mostly Cloudy
1:55 PM 19.4 °F 7.2 °F 3.2 °F 49% 30.03 in 10.0 mi WSW 11.5 mph 16.1 mph N/A   Scattered Clouds
2:15 PM 19.4 °F 9.5 °F 3.2 °F 49% 30.02 in 10.0 mi West 8.1 mph - N/A   Scattered Clouds
2:35 PM 19.4 °F 7.2 °F 3.2 °F 49% 30.00 in 10.0 mi West 11.5 mph 17.3 mph N/A   Clear
2:55 PM 19.4 °F 7.2 °F 3.2 °F 49% 29.99 in 10.0 mi West 11.5 mph - N/A   Clear
3:15 PM 19.4 °F 8.6 °F 5.0 °F 54% 29.98 in 10.0 mi West 9.2 mph - N/A   Clear
3:35 PM 19.4 °F 7.2 °F 3.2 °F 49% 29.97 in 10.0 mi West 11.5 mph - N/A   Clear
3:55 PM 21.2 °F 8.3 °F 3.2 °F 46% 29.96 in 10.0 mi West 13.8 mph - N/A   Clear
4:15 PM 21.2 °F 7.8 °F 3.2 °F 46% 29.95 in 10.0 mi West 15.0 mph 18.4 mph N/A   Clear
4:35 PM 21.2 °F 8.3 °F 3.2 °F 46% 29.94 in 10.0 mi WSW 13.8 mph 19.6 mph N/A   Clear
4:55 PM 19.4 °F 5.5 °F 3.2 °F 49% 29.93 in 10.0 mi WSW 15.0 mph 21.9 mph N/A   Clear
5:15 PM 19.4 °F 6.6 °F 3.2 °F 49% 29.92 in 10.0 mi WSW 12.7 mph - N/A   Clear
5:35 PM 19.4 °F 6.6 °F 3.2 °F 49% 29.90 in 10.0 mi WSW 12.7 mph - N/A   Clear
5:55 PM 19.4 °F 6.0 °F 3.2 °F 49% 29.90 in 10.0 mi WSW 13.8 mph 20.7 mph N/A   Clear
6:15 PM 19.4 °F 6.0 °F 3.2 °F 49% 29.89 in 10.0 mi WSW 13.8 mph - N/A   Clear
6:35 PM 17.6 °F 4.3 °F 3.2 °F 53% 29.88 in 10.0 mi WSW 12.7 mph 16.1 mph N/A   Clear
6:55 PM 17.6 °F 4.3 °F 3.2 °F 53% 29.87 in 10.0 mi WSW 12.7 mph 16.1 mph N/A   Clear
7:15 PM 17.6 °F 3.7 °F 3.2 °F 53% 29.87 in 10.0 mi WSW 13.8 mph - N/A   Clear
7:35 PM 17.6 °F 4.3 °F 5.0 °F 58% 29.87 in 10.0 mi WSW 12.7 mph - N/A   Clear
7:55 PM 17.6 °F 6.4 °F 5.0 °F 58% 29.85 in 10.0 mi WSW 9.2 mph - N/A   Clear
8:15 PM 17.6 °F 5.0 °F 5.0 °F 58% 29.84 in 10.0 mi SW 11.5 mph - N/A   Clear
8:35 PM 17.6 °F 7.3 °F 5.0 °F 58% 29.83 in 10.0 mi SW 8.1 mph - N/A   Clear
8:55 PM 17.6 °F 5.0 °F 5.0 °F 58% 29.83 in 10.0 mi WSW 11.5 mph - N/A   Clear
9:15 PM 15.8 °F 2.7 °F 5.0 °F 62% 29.83 in 10.0 mi WSW 11.5 mph - N/A   Clear
9:35 PM 15.8 °F 2.7 °F 5.0 °F 62% 29.82 in 10.0 mi WSW 11.5 mph - N/A   Clear
9:55 PM 15.8 °F 2.1 °F 5.0 °F 62% 29.83 in 10.0 mi WSW 12.7 mph - N/A   Clear
10:15 PM 17.6 °F 5.0 °F 5.0 °F 58% 29.82 in 10.0 mi WSW 11.5 mph - N/A   Mostly Cloudy
10:35 PM 17.6 °F 5.0 °F 5.0 °F 58% 29.81 in 10.0 mi WSW 11.5 mph 21.9 mph N/A   Overcast
10:55 PM 15.8 °F -0.2 °F 5.0 °F 62% 29.81 in 10.0 mi WSW 17.3 mph 21.9 mph N/A   Mostly Cloudy
11:15 PM 15.8 °F 2.7 °F 5.0 °F 62% 29.80 in 10.0 mi WSW 11.5 mph 21.9 mph N/A   Scattered Clouds
11:35 PM 15.8 °F 1.4 °F 5.0 °F 62% 29.80 in 10.0 mi WSW 13.8 mph - N/A   Clear
11:55 PM 15.8 °F -1.1 °F 5.0 °F 62% 29.79 in 10.0 mi WSW 19.6 mph 25.3 mph N/A   Clear